Regional Weather Roundup
Issued by NWS Binghamton, NY

Home | Current Version | Previous Version | Text Only | Print | Product List | Glossary On
Versions: 1 2 3 4 5 6 7 8 9 10 11 12 13 14 15 16 17 18 19 20 21 22 23 24 25 26 27 28 29 30 31 32 33 34 35 36 37 38 39 40 41 42 43 44 45 46 47 48 49 50
000
ASUS41 KBGM 211110
RWRBGM

REGIONAL WEATHER ROUNDUP
NATIONAL WEATHER SERVICE BINGHAMTON NY
600 AM EST WED FEB 21 2018

Note: "fair" indicates few or no clouds below 12,000 feet with no
significant weather and/or obstructions to visibility.

* = Station(s) that does not report precipitation, such as rain,
snow, etc, also no thunder or fog.

NYZ009-015>018-022>025-036-037-044>046-055>057-062-211200
...Central New York...

CITY           SKY/WX    TMP DP  RH WIND       PRES   REMARKS
Binghamton     FAIR      54  50  86 SW7       30.19S
Cortland       FAIR      54  50  87 SW7       30.16F
Dansville      FAIR      54  48  80 SE12      30.10F
Elmira         CLOUDY    38  37  97 CALM      30.18R FOG
Seneca Falls   MOSUNNY   57  52  82 CALM      30.11S
Ithaca         MOCLDY    57  52  83 SE10      30.17F
Hornell        CLEAR     48  46  93 SE5       30.17S
Monticello     LGT RAIN  47  46  97 CALM      30.27R VSB 1/4
Oneonta        CLEAR     55 N/A N/A SW6       30.20F
Penn Yan       FAIR      58  49  72 SW12      30.13S
Rome           FAIR      51  48  89 CALM      30.12F
Sidney         CLOUDY    39  39 100 CALM      30.20F VSB 1/4
Syracuse       FAIR      61  53  75 SW7       30.09S
$$

PAZ038>040-043-044-047-048-072-211200
...Northeast Pennsylvania...

CITY           SKY/WX    TMP DP  RH WIND       PRES   REMARKS
Hazleton       FAIR      54  52  94 S3        30.30S
Scranton       FAIR      54  53  97 CALM      30.25S
$$
&&
KEY
WCI = Wind Chill Index
VSB = Visibility
HX  = Heat Index
$$



USA.gov is the U.S. government's official web portal to all federal, state and local government web resources and services.